(205526) = 2001 SE114

Discovered at Desert Eagle on 2001-09-20 by W. K. Y. Yeung.

Orbit

Orbit type: Main Belt

Note: WebGL enabled browser required.

epoch2024-03-31.0
epoch JD2460400.5
perihelion date2022-10-06.53352
perihelion JD2459859.03352
argument of perihelion (°)329.82022
ascending node (°)358.83577
inclination (°)15.51479
eccentricity0.0219443
perihelion distance (AU)3.0177850
Tisserand w.r.t. Jupiter3.2
ΔV w.r.t. Earth (km/sec)11.8
semimajor axis (AU)3.0854940
mean anomaly (°)98.46647
mean daily motion (°/day)0.18185150
aphelion distance (AU)3.153
period (years)5.42
P-vector [x]0.85443172
P-vector [y]-0.40695933
P-vector [z]-0.32300238
Q-vector [x]0.51953527
Q-vector [y]0.66271221
Q-vector [z]0.53934742
absolute magnitude15.03
phase slope0.15
uncertainty0
referenceMPEC 2024-D119
observations used683
oppositions17
arc length (days)8199
first opposition used2001
last opposition used2024
residual rms (arc-secs)0.74
perturbers coarse indicatorM-v
perturbers precise indicator003Ek
first observation date used2001-09-11.0
last observation date used2024-02-22.0
computer nameMPCLINUX
JD of orbit computation2456731.488937
perihelion JD uncertainty (days)1.5326E-03
argument of perihelion uncertainty (°)2.7208E-04
ascending node uncertainty (°)1.9210E-05
inclination uncertainty (°)8.7849E-06
eccentricity uncertainty 1.1510E-07
perihelion distance uncertainty (AU)3.3167E-07
Minimum Orbit Intersection Distances (in AU)
for orbit epoch: 2460400.5, reference: E2024-DB9
Mercury2.58729
Venus2.29156
Earth2.01624
Mars1.48786
Jupiter1.93286
Saturn6.08309
Uranus15.2935
Neptune26.8172

Observations

694 total observations over interval: 2001 09 11.39833 – 2024 02 22.265221
These data are available for download (format description).

Date (UT) J2000 RA J2000 Dec Magn Location Ref
2001 09 11.39833 01 00 14.66 +10 24 28.5 18.8 R 699 – Lowell Observatory-LONEOS MPS 43916
2001 09 11.41884 01 00 13.61 +10 24 29.1   699 – Lowell Observatory-LONEOS MPS 43916
2001 09 11.43940 01 00 12.79 +10 24 31.6   699 – Lowell Observatory-LONEOS MPS 43916
2001 09 11.45990 01 00 11.87 +10 24 31.7   699 – Lowell Observatory-LONEOS MPS 43916
2001 09 17.35177 00 55 49.07 +10 28 24.7 19.8   704 – Lincoln Laboratory ETS, New Mexico MPS 36638
2001 09 17.36584 00 55 48.40 +10 28 24.8 19.7   704 – Lincoln Laboratory ETS, New Mexico MPS 36638
2001 09 17.37968 00 55 47.75 +10 28 25.7 20.0   704 – Lincoln Laboratory ETS, New Mexico MPS 36638
2001 09 20.29785 00 53 26.48 +10 28 58.2 20.2 V 333 – Desert Eagle Observatory MPS 36638
2001 09 20.31262 00 53 25.71 +10 28 57.8 19.8 V 333 – Desert Eagle Observatory MPS 36638
2001 09 20.32295 00 53 25.20 +10 28 58.8 19.3   704 – Lincoln Laboratory ETS, New Mexico MPS 36638
2001 09 20.33199 00 53 24.78 +10 28 59.1 19.9 V 333 – Desert Eagle Observatory MPS 36638
2001 09 20.34105 00 53 24.23 +10 28 59.0 19.6   704 – Lincoln Laboratory ETS, New Mexico MPS 36638
2001 09 20.35525 00 53 23.50 +10 28 59.7 19.5   704 – Lincoln Laboratory ETS, New Mexico MPS 36638
2001 09 20.36943 00 53 22.81 +10 28 59.4 19.5   704 – Lincoln Laboratory ETS, New Mexico MPS 36638
2001 09 20.38363 00 53 22.11 +10 29 00.0 19.3   704 – Lincoln Laboratory ETS, New Mexico MPS 36638
2001 09 21.29878 00 52 36.51 +10 28 58.2 19.2 V 333 – Desert Eagle Observatory MPS 36638
2001 09 21.31351 00 52 35.78 +10 28 58.1 19.4 V 333 – Desert Eagle Observatory MPS 36638
2001 09 21.32854 00 52 35.04 +10 28 58.4 19.5 V 333 – Desert Eagle Observatory MPS 36638
2001 10 14.17786 00 32 15.21 +10 08 29.1 19.4   704 – Lincoln Laboratory ETS, New Mexico MPS 39378
2001 10 14.19358 00 32 14.29 +10 08 28.8 20.2   704 – Lincoln Laboratory ETS, New Mexico MPS 39378
2001 10 14.20931 00 32 13.49 +10 08 25.8 19.9   704 – Lincoln Laboratory ETS, New Mexico MPS 39378
2001 10 14.22507 00 32 12.64 +10 08 25.3 20.1   704 – Lincoln Laboratory ETS, New Mexico MPS 39378
2001 10 14.24084 00 32 11.71 +10 08 24.7 19.7   704 – Lincoln Laboratory ETS, New Mexico MPS 39378
2001 10 15.41070 00 31 11.19 +10 06 41.9 20.8   608 – Haleakala-AMOS MPS 39378
2001 10 15.42089 00 31 10.72 +10 06 40.8 20.1   608 – Haleakala-AMOS MPS 39378
2001 10 15.43141 00 31 10.13 +10 06 40.4 20.6   608 – Haleakala-AMOS MPS 39378
2001 10 17.24236 00 29 38.16 +10 03 56.8 19.2   704 – Lincoln Laboratory ETS, New Mexico MPS 39378
2001 10 17.25852 00 29 37.33 +10 03 55.5 19.9   704 – Lincoln Laboratory ETS, New Mexico MPS 39378
2001 10 17.27449 00 29 36.47 +10 03 53.8 19.9   704 – Lincoln Laboratory ETS, New Mexico MPS 39378
2001 10 17.29047 00 29 35.69 +10 03 52.7 19.7   704 – Lincoln Laboratory ETS, New Mexico MPS 39378
2001 10 18.15555 00 28 52.70 +10 02 33.5 19.8   704 – Lincoln Laboratory ETS, New Mexico MPS 43916
2001 10 18.17127 00 28 51.87 +10 02 33.3 19.9   704 – Lincoln Laboratory ETS, New Mexico MPS 43916
2001 10 18.18699 00 28 51.07 +10 02 31.1 20.4   704 – Lincoln Laboratory ETS, New Mexico MPS 43916
2001 11 10.23406 00 14 13.62 +09 35 29.4 19.5   704 – Lincoln Laboratory ETS, New Mexico MPS 40546
2001 11 10.24912 00 14 13.16 +09 35 27.8 20.2   704 – Lincoln Laboratory ETS, New Mexico MPS 40546
2001 11 10.27818 00 14 12.44 +09 35 26.2 20.0   704 – Lincoln Laboratory ETS, New Mexico MPS 40546
2004 01 18.49562 12 06 39.07 +05 09 48.5 20.5 R 691 – Steward Observatory, Kitt Peak-Spacewatch MPS 107343
2004 01 18.51795 12 06 39.05 +05 09 45.6 20.2 R 691 – Steward Observatory, Kitt Peak-Spacewatch MPS 107343
2004 01 18.54039 12 06 39.04 +05 09 43.0 20.1 R 691 – Steward Observatory, Kitt Peak-Spacewatch MPS 107343
2004 01 27.47012 12 05 53.77 +04 55 57.3 20.6 V 691 – Steward Observatory, Kitt Peak-Spacewatch MPS 98736
2004 01 27.47293 12 05 53.74 +04 55 57.4 20.4 V 691 – Steward Observatory, Kitt Peak-Spacewatch MPS 98736
2004 01 27.49322 12 05 53.49 +04 55 56.0 20.7 V 691 – Steward Observatory, Kitt Peak-Spacewatch MPS 98736
2004 01 27.49602 12 05 53.46 +04 55 55.6 20.5 V 691 – Steward Observatory, Kitt Peak-Spacewatch MPS 98736
2004 01 27.51639 12 05 53.20 +04 55 54.4 20.7 V 691 – Steward Observatory, Kitt Peak-Spacewatch MPS 98736
2004 01 27.51923 12 05 53.16 +04 55 54.0 20.5 V 691 – Steward Observatory, Kitt Peak-Spacewatch MPS 98736
2004 01 30.49499 12 05 13.88 +04 53 10.0 20.9 V 568 – Maunakea MPS 107343
2004 01 30.50909 12 05 13.46 +04 53 08.3 20.8 V 691 – Steward Observatory, Kitt Peak-Spacewatch MPS 98736
2004 01 30.51181 12 05 13.43 +04 53 08.5 20.9 V 691 – Steward Observatory, Kitt Peak-Spacewatch MPS 98736
2004 01 30.53214 12 05 13.09 +04 53 07.2 21.2 V 691 – Steward Observatory, Kitt Peak-Spacewatch MPS 98736
2004 01 30.53470 12 05 13.06 +04 53 07.1 21.2 V 691 – Steward Observatory, Kitt Peak-Spacewatch MPS 98736
2004 01 30.55413 12 05 12.72 +04 53 06.1 20.9 V 691 – Steward Observatory, Kitt Peak-Spacewatch MPS 98736
2004 01 30.55741 12 05 12.69 +04 53 05.9 20.9 V 691 – Steward Observatory, Kitt Peak-Spacewatch MPS 98736
2004 01 30.56336 12 05 12.74 +04 53 06.8 20.9 V 568 – Maunakea MPS 107343
2004 01 30.65482 12 05 11.19 +04 53 02.5 20.9 V 568 – Maunakea MPS 107343
2004 02 16.39221 11 57 46.27 +04 52 56.4 20.4 V 703 – Catalina Sky Survey MPS 98736
2004 02 16.40137 11 57 45.88 +04 52 56.9 20.3 V 703 – Catalina Sky Survey MPS 98736
2004 02 16.41057 11 57 45.60 +04 52 56.7 20.3 V 703 – Catalina Sky Survey MPS 98736
2004 02 16.41975 11 57 45.20 +04 52 58.6 20.4 V 703 – Catalina Sky Survey MPS 98736
2004 02 23.34029 11 53 01.80 +04 59 07.1 19.6   704 – Lincoln Laboratory ETS, New Mexico MPS 100017
2004 02 23.35283 11 53 01.21 +04 59 07.9 19.8   704 – Lincoln Laboratory ETS, New Mexico MPS 100017
2004 02 23.36507 11 53 00.66 +04 59 08.6 19.8   704 – Lincoln Laboratory ETS, New Mexico MPS 100017
2004 02 23.37735 11 53 00.10 +04 59 09.7 20.1   704 – Lincoln Laboratory ETS, New Mexico MPS 100017
2004 03 15.19583 11 35 17.41 +05 25 54.4 19.5 V 691 – Steward Observatory, Kitt Peak-Spacewatch MPS 101147
2004 03 15.22821 11 35 15.62 +05 25 56.7 19.4 V 691 – Steward Observatory, Kitt Peak-Spacewatch MPS 101147
2004 03 15.25480 11 35 14.13 +05 25 58.7 19.4 V 691 – Steward Observatory, Kitt Peak-Spacewatch MPS 101147
2004 03 15.30973 11 35 11.11 +05 26 03.3 19.5   704 – Lincoln Laboratory ETS, New Mexico MPS 101147
2004 03 15.32046 11 35 10.48 +05 26 03.6 20.1   704 – Lincoln Laboratory ETS, New Mexico MPS 101147
2004 03 15.33127 11 35 09.94 +05 26 04.2 20.0   704 – Lincoln Laboratory ETS, New Mexico MPS 101147
2004 03 19.33330 11 31 34.03 +05 30 38.3 19.6   704 – Lincoln Laboratory ETS, New Mexico MPS 102125
2004 03 19.34398 11 31 33.45 +05 30 39.1 19.5   704 – Lincoln Laboratory ETS, New Mexico MPS 102125
2004 03 19.35474 11 31 32.85 +05 30 38.6 20.0   704 – Lincoln Laboratory ETS, New Mexico MPS 102125
2004 03 19.36619 11 31 32.22 +05 30 40.1 19.4   704 – Lincoln Laboratory ETS, New Mexico MPS 102125
2004 03 19.37700 11 31 31.66 +05 30 41.8 19.6   704 – Lincoln Laboratory ETS, New Mexico MPS 102125
2004 03 20.26248 11 30 44.53 +05 31 35.5 19.4 R 699 – Lowell Observatory-LONEOS MPS 103827
2004 03 20.27755 11 30 43.67 +05 31 37.6 19.5   704 – Lincoln Laboratory ETS, New Mexico MPS 102125
2004 03 20.28776 11 30 43.18 +05 31 37.7   699 – Lowell Observatory-LONEOS MPS 103827
2004 03 20.28836 11 30 43.09 +05 31 37.5 19.8   704 – Lincoln Laboratory ETS, New Mexico MPS 102125
2004 03 20.29935 11 30 42.48 +05 31 38.6 19.8   704 – Lincoln Laboratory ETS, New Mexico MPS 102125
2004 03 20.31059 11 30 41.86 +05 31 39.4 19.5   704 – Lincoln Laboratory ETS, New Mexico MPS 102125
2004 03 20.31311 11 30 41.69 +05 31 40.5   699 – Lowell Observatory-LONEOS MPS 103827
2004 03 20.32379 11 30 41.18 +05 31 40.1 19.8   704 – Lincoln Laboratory ETS, New Mexico MPS 102125
2004 03 20.33849 11 30 40.42 +05 31 41.6   699 – Lowell Observatory-LONEOS MPS 103827
2004 03 22.29394 11 28 57.04 +05 33 32.6 19.7   704 – Lincoln Laboratory ETS, New Mexico MPS 102125
2004 03 22.30542 11 28 56.42 +05 33 33.4 19.7   704 – Lincoln Laboratory ETS, New Mexico MPS 102125
